{"data":{"norad_id":57938,"epoch":"2026-05-25T01:28:13.243296Z","epoch_age_seconds":70002,"freshness":"FRESH","line1":"1 57938U 23148D   26145.06126439  .00000962  00000+0  39613-4 0  9991","line2":"2 57938  53.1609  19.0782 0001201  84.6104 275.5035 15.34390234150256","mean_motion":15.34390234,"eccentricity":0.0001201,"inclination_deg":53.1609,"raan_deg":19.0782,"arg_perigee_deg":84.6104,"mean_anomaly_deg":275.5035,"bstar":3.9613e-5,"rev_number":15025,"period_min":93.848355398227,"perigee_km":461.91067857219,"apogee_km":463.55385537012,"semimajor_km":6840.8692669712,"source":"CELESTRAK","updated_at":"2026-05-25T13:38:18.460737Z"}}